Location: Monte Entu
(40.0333°N, 8.5333°E)
Time: 02:26:13
(UTC+00:00)

Radarsat Rocket - Pass Details

Date: 09 February 2023
Orbit: 933 x 1491 km, 100.6° (Epoch: 23 March)

Event Time Altitude Azimuth Distance (km) Brightness Sun altitude
Rises 17:32:37 0° 166° (SSE) 3,638 7.0 -7.9°
Reaches altitude 10° 17:34:57 10° 167° (SSE) 2,734 6.4 -8.4°
Maximum altitude 17:41:04 80° 254° (WSW) 1,077 4.4 -9.5°
Drops below altitude 10° 17:47:59 10° 342° (NNW) 3,075 6.7 -10.8°
Sets 17:50:45 0° 344° (NNW) 4,122 7.4 -11.3°
